Ozark, AL

2:18 PM CST on January 20, 2018 (GMT -0600)
Cairns Army Air Field

Weather History for KOZR - September, 2013

Change the Weather History Date:

Tuesday, September 24, 2013

  Actual Average Record
Temperature  
Mean Temperature 75 °F -  
Max Temperature 79 °F 80 °F 94 °F (2010)
Min Temperature 71 °F 61 °F 50 °F (1999)
Cooling Degree Days 10    
Growing Degree Days 25 (Base 50)    
Moisture  
Dew Point 73 °F    
Average Humidity 95    
Maximum Humidity 100    
Minimum Humidity 83    
Precipitation  
Precipitation 0.78 in - - ()
Sea Level Pressure  
Sea Level Pressure 29.89 in    
Wind  
Wind Speed 7 mph (ENE)    
Max Wind Speed 16 mph    
Max Gust Speed 21 mph    
Visibility 7 miles    
Events Rain , Thunderstorm    
Averages and records for this station are not official NWS values.
T = Trace of Precipitation, MM = Missing Value Source: NWS Daily Summary

Daily Weather History Graph

Daily Weather History Graph

Search for Another Location

Airport or City:

Trip Planner

Search our weather history database for the weather conditions in past years. The results will help you decide how hot, cold, wet, or windy it might be!

Date:

Astronomy

Sep. 24, 2013 Rise Set
Actual Time 6:32 AM CDT 6:36 PM CDT
Civil Twilight 6:08 AM CDT 7:00 PM CDT
Nautical Twilight 5:40 AM CDT 7:28 PM CDT
Astronomical Twilight 5:11 AM CDT 7:57 PM CDT
Moon 10:13 PM CDT (9/24) 11:27 AM CDT (9/24)
Length of Visible Light 12h 52m
Length of Day
12h 04m
Waning Gibbous, 73% of the Moon is Illuminated
Sep 24
Waning Gibbous
Sep 26
Last Quarter
Oct 4
New
Oct 11
First Quarter
Oct 18
Full

Hourly Weather History & Observations

Time (CDT) Temp. Dew Point Humidity Pressure Visibility Wind Dir Wind Speed Gust Speed Precip Events Conditions
12:03 AM 73.4 °F 73.4 °F 100% 29.93 in 9.0 mi East 6.9 mph - N/A Rain Light Rain
12:18 AM 73.4 °F 73.4 °F 100% 29.93 in 9.0 mi East 9.2 mph - N/A Rain Light Rain
12:31 AM 73.4 °F 73.4 °F 100% 29.93 in 8.0 mi East 8.1 mph - N/A Rain Light Rain
12:51 AM 73.4 °F 71.6 °F 94% 29.92 in 7.0 mi East 6.9 mph - N/A Rain Light Rain
12:58 AM 72.7 °F 72.1 °F 98% 29.92 in 5.0 mi East 8.1 mph - 0.10 in Rain Rain
12:59 AM 73.4 °F 71.6 °F 94% 29.92 in 5.0 mi ENE 6.9 mph - N/A Rain Rain
1:04 AM 73.4 °F 71.6 °F 94% 29.92 in 6.0 mi ENE 8.1 mph - N/A Rain Light Rain
1:09 AM 73.4 °F 71.6 °F 94% 29.92 in 8.0 mi ENE 8.1 mph - N/A Rain Light Rain
1:19 AM 73.4 °F 71.6 °F 94% 29.93 in 9.0 mi ENE 5.8 mph - N/A Rain Light Rain
1:24 AM 73.4 °F 71.6 °F 94% 29.93 in 10.0 mi East 4.6 mph - N/A Rain Light Rain
1:57 AM 73.4 °F 71.6 °F 94% 29.93 in 10.0 mi NE 3.5 mph - N/A   Overcast
1:58 AM 73.4 °F 71.6 °F 94% 29.93 in 10.0 mi ENE 3.5 mph - 0.05 in   Overcast
2:21 AM 73.4 °F 71.6 °F 94% 29.92 in 10.0 mi ENE 4.6 mph - N/A Rain Light Rain
2:26 AM 73.4 °F 71.6 °F 94% 29.92 in 8.0 mi ENE 4.6 mph - N/A Rain Light Rain
2:58 AM 72.3 °F 72.0 °F 99% 29.92 in 4.0 mi ENE 5.8 mph - 0.06 in Rain Light Rain
3:21 AM 71.6 °F 71.6 °F 100% 29.91 in 5.0 mi ENE 6.9 mph - N/A   Overcast
3:31 AM 71.6 °F 71.6 °F 100% 29.92 in 5.0 mi ENE 5.8 mph - N/A   Overcast
3:58 AM 72.3 °F 72.1 °F 99% 29.91 in 6.0 mi ENE 5.8 mph - 0.01 in   Overcast
4:48 AM 71.6 °F 71.6 °F 100% 29.92 in 6.0 mi NE 6.9 mph - N/A   Overcast
4:58 AM 72.3 °F 72.3 °F 100% 29.92 in 6.0 mi NE 8.1 mph - N/A   Overcast
5:13 AM 71.6 °F 71.6 °F 100% 29.92 in 4.0 mi NNE 9.2 mph - N/A   Overcast
5:58 AM 71.6 °F 71.6 °F 100% 29.93 in 6.0 mi NE 5.8 mph - N/A   Overcast
6:23 AM 71.6 °F 71.6 °F 100% 29.94 in 4.0 mi NE 6.9 mph - N/A   Overcast
6:33 AM 71.6 °F 71.6 °F 100% 29.93 in 2.5 mi NE 9.2 mph - N/A   Overcast
6:38 AM 71.6 °F 71.6 °F 100% 29.94 in 1.8 mi NE 8.1 mph - N/A   Overcast
6:48 AM 71.6 °F 71.6 °F 100% 29.94 in 1.2 mi NE 6.9 mph - N/A   Overcast
6:53 AM 71.6 °F 71.6 °F 100% 29.94 in 1.0 mi NE 8.1 mph - N/A   Mist
6:58 AM 71.4 °F 71.4 °F 100% 29.93 in 1.0 mi NE 5.8 mph - N/A   Mist
7:08 AM 71.6 °F 71.6 °F 100% 29.94 in 1.2 mi NE 5.8 mph - N/A   Overcast
7:18 AM 71.6 °F 71.6 °F 100% 29.94 in 1.8 mi NE 6.9 mph - N/A   Overcast
7:23 AM 71.6 °F 71.6 °F 100% 29.94 in 2.0 mi NE 6.9 mph - N/A   Overcast
7:33 AM 71.6 °F 71.6 °F 100% 29.94 in 1.8 mi NE 5.8 mph - N/A   Overcast
7:43 AM 71.6 °F 71.6 °F 100% 29.94 in 2.0 mi NE 9.2 mph - N/A   Overcast
7:58 AM 71.4 °F 71.4 °F 100% 29.94 in 2.0 mi ENE 8.1 mph - N/A   Overcast
8:08 AM 71.6 °F 71.6 °F 100% 29.94 in 2.0 mi ENE 6.9 mph - N/A   Overcast
8:13 AM 71.6 °F 71.6 °F 100% 29.94 in 2.0 mi ENE 5.8 mph - N/A   Overcast
8:33 AM 71.6 °F 71.6 °F 100% 29.94 in 4.0 mi ENE 8.1 mph - N/A   Overcast
8:58 AM 71.8 °F 71.8 °F 100% 29.94 in 6.0 mi ENE 8.1 mph - N/A   Overcast
9:08 AM 71.6 °F 71.6 °F 100% 29.94 in 6.0 mi ENE 9.2 mph - N/A   Overcast
9:58 AM 72.5 °F 72.5 °F 100% 29.95 in 10.0 mi ENE 6.9 mph - N/A   Overcast
10:08 AM 73.4 °F 71.6 °F 94% 29.95 in 10.0 mi ENE 6.9 mph - N/A   Overcast
10:58 AM 73.6 °F 72.7 °F 97% 29.94 in 10.0 mi ENE 8.1 mph - N/A   Overcast
11:18 AM 75.2 °F 73.4 °F 94% 29.93 in 10.0 mi East 4.6 mph - N/A   Overcast
11:43 AM 75.2 °F 71.6 °F 89% 29.93 in 10.0 mi ENE 5.8 mph - N/A   Overcast
11:58 AM 75.2 °F 72.1 °F 90% 29.93 in 10.0 mi ENE 6.9 mph - N/A   Overcast
12:43 PM 77.0 °F 71.6 °F 83% 29.91 in 10.0 mi East 5.8 mph - N/A   Overcast
12:58 PM 76.8 °F 72.3 °F 86% 29.90 in 10.0 mi East 5.8 mph - N/A   Overcast
1:07 PM 77.0 °F 71.6 °F 83% 29.91 in 10.0 mi ESE 4.6 mph - N/A   Overcast
1:18 PM 77.0 °F 73.4 °F 89% 29.90 in 10.0 mi East 5.8 mph - N/A   Overcast
1:58 PM 77.2 °F 72.7 °F 86% 29.90 in 10.0 mi ENE 2.3 mph - N/A   Overcast
2:58 PM 77.2 °F 73.0 °F 87% 29.87 in 10.0 mi ENE 5.8 mph - N/A   Overcast
3:23 PM 78.8 °F 73.4 °F 83% 29.86 in 10.0 mi East 6.9 mph - N/A   Overcast
3:58 PM 78.4 °F 73.0 °F 83% 29.86 in 10.0 mi ENE 6.9 mph - N/A   Overcast
4:43 PM 78.8 °F 73.4 °F 83% 29.86 in 10.0 mi East 4.6 mph - N/A   Overcast
4:48 PM 78.8 °F 73.4 °F 83% 29.86 in 10.0 mi East 4.6 mph - N/A   Mostly Cloudy
4:53 PM 78.8 °F 73.4 °F 83% 29.85 in 10.0 mi East 4.6 mph - N/A   Scattered Clouds
4:58 PM 79.2 °F 73.6 °F 83% 29.85 in 10.0 mi ESE 2.3 mph - N/A   Scattered Clouds
5:48 PM 78.8 °F 73.4 °F 83% 29.86 in 10.0 mi Calm Calm - N/A   Mostly Cloudy
5:58 PM 78.4 °F 73.9 °F 86% 29.86 in 10.0 mi Calm Calm - N/A   Overcast
6:23 PM 78.8 °F 73.4 °F 83% 29.86 in 10.0 mi ENE 2.3 mph - N/A   Light Drizzle
6:38 PM 77.0 °F 75.2 °F 94% 29.85 in 10.0 mi NE 3.5 mph - N/A Rain Light Rain
6:47 PM 77.0 °F 75.2 °F 94% 29.85 in 10.0 mi NE 6.9 mph - N/A   Scattered Clouds
6:57 PM 77.0 °F 75.2 °F 94% 29.85 in 10.0 mi ENE 8.1 mph - N/A   Mostly Cloudy
6:58 PM 76.6 °F 74.5 °F 93% 29.85 in 10.0 mi ENE 9.2 mph - 0.00 in   Mostly Cloudy
7:03 PM 77.0 °F 73.4 °F 89% 29.85 in 10.0 mi ENE 10.4 mph - N/A   Scattered Clouds
7:56 PM 75.2 °F 73.4 °F 94% 29.87 in 10.0 mi ENE 6.9 mph - N/A   Light Drizzle
7:58 PM 75.2 °F 73.4 °F 94% 29.87 in 10.0 mi ENE 6.9 mph - N/A   Light Drizzle
8:04 PM 75.2 °F 73.4 °F 94% 29.86 in 10.0 mi NE 8.1 mph - N/A Rain , Thunderstorm Light Thunderstorms and Rain
8:19 PM 75.2 °F 73.4 °F 94% 29.87 in 10.0 mi NE 8.1 mph - N/A Rain Light Rain
8:41 PM 75.2 °F 73.4 °F 94% 29.86 in 5.0 mi NE 10.4 mph - N/A Rain , Thunderstorm Thunderstorms and Rain
8:46 PM 75.2 °F 73.4 °F 94% 29.86 in 4.0 mi NE 8.1 mph - N/A Rain , Thunderstorm Heavy Thunderstorms and Rain
8:51 PM 75.2 °F 73.4 °F 94% 29.86 in 4.0 mi NE 9.2 mph - N/A Rain , Thunderstorm Heavy Thunderstorms and Rain
8:56 PM 73.4 °F 73.4 °F 100% 29.86 in 4.0 mi NE 10.4 mph - N/A Rain Rain
8:58 PM 73.4 °F 73.4 °F 100% 29.86 in 4.0 mi NNE 9.2 mph - 0.15 in Rain Rain
9:14 PM 73.4 °F 73.4 °F 100% 29.86 in 4.0 mi NE 8.1 mph - N/A Rain Heavy Rain
9:29 PM 73.4 °F 73.4 °F 100% 29.87 in 4.0 mi ENE 8.1 mph - N/A Rain Rain
9:44 PM 73.4 °F 73.4 °F 100% 29.86 in 4.0 mi ENE 8.1 mph - N/A Rain Heavy Rain
9:58 PM 73.6 °F 73.0 °F 98% 29.86 in 4.0 mi NE 11.5 mph - 0.28 in Rain Heavy Rain
10:39 PM 73.4 °F 73.4 °F 100% 29.83 in 7.0 mi ENE 16.1 mph - N/A Rain Light Rain
10:49 PM 73.4 °F 73.4 °F 100% 29.83 in 8.0 mi East 11.5 mph - N/A Rain Light Rain
10:58 PM 72.9 °F 72.5 °F 99% 29.81 in 10.0 mi East 15.0 mph - 0.12 in Rain Light Rain
11:00 PM 73.4 °F 73.4 °F 100% 29.81 in 10.0 mi East 13.8 mph - N/A Rain Light Rain
11:27 PM 73.4 °F 71.6 °F 94% 29.78 in 10.0 mi ESE 13.8 mph 20.7 mph N/A   Scattered Clouds
11:47 PM 73.4 °F 73.4 °F 100% 29.80 in 10.0 mi SE 8.1 mph - N/A   Mostly Cloudy
11:52 PM 73.4 °F 71.6 °F 94% 29.80 in 10.0 mi SE 8.1 mph - N/A   Mostly Cloudy
11:58 PM 73.2 °F 72.3 °F 97% 29.79 in 10.0 mi SE 9.2 mph - 0.01 in   Mostly Cloudy